2026/08/28
| Sensor | Date | Temp./Hum. |
|---|---|---|
| h2-hermonville | 28-08-2026 - 23:53 | 17.3°C / 80% |
| h1-hermonville | 28-08-2026 - 23:53 | 17.6°C / 79% |
| h3-hermonville | 28-08-2026 - 23:49 | 17.1°C / 80% |
| h2-hermonville | 28-08-2026 - 23:43 | 17.4°C / 79% |
| h1-hermonville | 28-08-2026 - 23:43 | 17.7°C / 78% |
| h3-hermonville | 28-08-2026 - 23:39 | 17.2°C / 79.5% |
| h4-hermonville | 28-08-2026 - 23:38 | 17.9°C / 75.5% |
| h1-hermonville | 28-08-2026 - 23:33 | 17.6°C / 78% |
| h2-hermonville | 28-08-2026 - 23:33 | 17.4°C / 78.5% |
| h2-hermonville | 28-08-2026 - 23:13 | 17.5°C / 78% |
| h1-hermonville | 28-08-2026 - 23:13 | 17.6°C / 77% |
| h3-hermonville | 28-08-2026 - 23:09 | 17.2°C / 78.5% |
| h1-hermonville | 28-08-2026 - 23:03 | 17.8°C / 77.5% |
| h2-hermonville | 28-08-2026 - 23:03 | 17.6°C / 78.5% |
| h4-hermonville | 28-08-2026 - 22:48 | 18.3°C / 74.5% |
| h1-hermonville | 28-08-2026 - 22:43 | 18.2°C / 76.5% |
| h2-hermonville | 28-08-2026 - 22:43 | 17.8°C / 77.5% |
| h3-hermonville | 28-08-2026 - 22:39 | 17.5°C / 79.5% |
| h2-hermonville | 28-08-2026 - 22:33 | 18°C / 79% |
| h1-hermonville | 28-08-2026 - 22:33 | 18.3°C / 78.5% |
| h3-hermonville | 28-08-2026 - 22:29 | 17.7°C / 80% |
| h4-hermonville | 28-08-2026 - 22:28 | 18.5°C / 75.5% |
| h1-hermonville | 28-08-2026 - 22:23 | 18.4°C / 78.5% |
| h3-hermonville | 28-08-2026 - 22:19 | 17.8°C / 80% |
| h4-hermonville | 28-08-2026 - 22:18 | 18.6°C / 76% |
| h1-hermonville | 28-08-2026 - 22:13 | 18.4°C / 79% |
| h2-hermonville | 28-08-2026 - 22:13 | 18.2°C / 79% |
| h3-hermonville | 28-08-2026 - 22:09 | 17.9°C / 80.5% |
| h4-hermonville | 28-08-2026 - 22:08 | 18.6°C / 76% |
| h1-hermonville | 28-08-2026 - 22:03 | 18.4°C / 79% |
| h4-hermonville | 28-08-2026 - 21:58 | 18.8°C / 76% |
| h1-hermonville | 28-08-2026 - 21:53 | 18.4°C / 78.5% |
| h2-hermonville | 28-08-2026 - 21:53 | 18.4°C / 78.5% |
| h3-hermonville | 28-08-2026 - 21:49 | 18°C / 79.5% |
| h4-hermonville | 28-08-2026 - 21:48 | 18.8°C / 75.5% |
| h2-hermonville | 28-08-2026 - 21:43 | 18.3°C / 78.5% |
| h1-hermonville | 28-08-2026 - 21:43 | 18.5°C / 78.5% |
| h3-hermonville | 28-08-2026 - 21:39 | 18°C / 79% |
| h4-hermonville | 28-08-2026 - 21:38 | 18.7°C / 75.5% |
| h1-hermonville | 28-08-2026 - 21:33 | 18.6°C / 78% |
| h2-hermonville | 28-08-2026 - 21:33 | 18.4°C / 78% |
| h3-hermonville | 28-08-2026 - 21:29 | 18.1°C / 79% |
| h4-hermonville | 28-08-2026 - 21:28 | 18.8°C / 75% |
| h1-hermonville | 28-08-2026 - 21:23 | 18.6°C / 78% |
| h2-hermonville | 28-08-2026 - 21:23 | 18.5°C / 78% |
| h3-hermonville | 28-08-2026 - 21:19 | 18°C / 79.5% |
| h4-hermonville | 28-08-2026 - 21:18 | 18.8°C / 75% |
| h1-hermonville | 28-08-2026 - 21:13 | 18.6°C / 78% |
| h3-hermonville | 28-08-2026 - 21:09 | 18.1°C / 79.5% |
| h4-hermonville | 28-08-2026 - 21:08 | 19°C / 75.5% |
| h1-hermonville | 28-08-2026 - 21:03 | 18.7°C / 78% |
| h2-hermonville | 28-08-2026 - 21:03 | 18.6°C / 78% |
| h3-hermonville | 28-08-2026 - 20:59 | 18.2°C / 79.5% |
| h4-hermonville | 28-08-2026 - 20:58 | 19°C / 75% |
| h1-hermonville | 28-08-2026 - 20:53 | 18.9°C / 77.5% |
| h2-hermonville | 28-08-2026 - 20:53 | 18.7°C / 77.5% |
| h3-hermonville | 28-08-2026 - 20:49 | 18.3°C / 78.5% |
| h4-hermonville | 28-08-2026 - 20:48 | 19.1°C / 74.5% |
| h1-hermonville | 28-08-2026 - 20:43 | 18.9°C / 77.5% |
| h3-hermonville | 28-08-2026 - 20:39 | 18.4°C / 78.5% |
| h4-hermonville | 28-08-2026 - 20:38 | 19.2°C / 74% |
| h1-hermonville | 28-08-2026 - 20:33 | 19°C / 77% |
| h3-hermonville | 28-08-2026 - 20:29 | 18.4°C / 79% |
| h4-hermonville | 28-08-2026 - 20:28 | 19.3°C / 74.5% |
| h1-hermonville | 28-08-2026 - 20:23 | 19°C / 77.5% |
| h3-hermonville | 28-08-2026 - 20:19 | 18.4°C / 79% |
| h4-hermonville | 28-08-2026 - 20:18 | 19.4°C / 74.5% |
| h1-hermonville | 28-08-2026 - 20:13 | 19.1°C / 77% |
| h2-hermonville | 28-08-2026 - 20:13 | 19.3°C / 76.5% |
| h3-hermonville | 28-08-2026 - 20:09 | 18.6°C / 78% |
| h4-hermonville | 28-08-2026 - 20:08 | 19.5°C / 73.5% |
| h1-hermonville | 28-08-2026 - 20:03 | 19.2°C / 76.5% |
| h2-hermonville | 28-08-2026 - 20:03 | 19.3°C / 75.5% |
| h4-hermonville | 28-08-2026 - 19:58 | 19.5°C / 73% |
| h1-hermonville | 28-08-2026 - 19:53 | 19.3°C / 76% |
| h2-hermonville | 28-08-2026 - 19:53 | 19.6°C / 74% |
| h4-hermonville | 28-08-2026 - 19:48 | 19.8°C / 72% |
| h1-hermonville | 28-08-2026 - 19:43 | 19.5°C / 74.5% |
| h3-hermonville | 28-08-2026 - 19:39 | 19.2°C / 74.5% |
| h4-hermonville | 28-08-2026 - 19:38 | 19.9°C / 71.5% |
| h1-hermonville | 28-08-2026 - 19:33 | 19.8°C / 74% |
| h2-hermonville | 28-08-2026 - 19:33 | 20.9°C / 69% |
| h3-hermonville | 28-08-2026 - 19:29 | 19.3°C / 74.5% |
| h4-hermonville | 28-08-2026 - 19:28 | 20°C / 71.5% |
| h1-hermonville | 28-08-2026 - 19:23 | 19.9°C / 74% |
| h3-hermonville | 28-08-2026 - 19:19 | 19.5°C / 76% |
| h1-hermonville | 28-08-2026 - 19:13 | 19.9°C / 76% |
| h2-hermonville | 28-08-2026 - 19:13 | 20.8°C / 73% |
| h3-hermonville | 28-08-2026 - 19:09 | 19.4°C / 77% |
| h4-hermonville | 28-08-2026 - 19:08 | 20.2°C / 73% |
| h1-hermonville | 28-08-2026 - 19:03 | 20.2°C / 76% |
| h2-hermonville | 28-08-2026 - 19:03 | 21.7°C / 70.5% |
| h3-hermonville | 28-08-2026 - 18:59 | 19.4°C / 78% |
| h4-hermonville | 28-08-2026 - 18:58 | 20.2°C / 74% |
| h1-hermonville | 28-08-2026 - 18:53 | 20°C / 77% |
| h2-hermonville | 28-08-2026 - 18:53 | 21°C / 72.5% |
| h3-hermonville | 28-08-2026 - 18:49 | 19.2°C / 77.5% |
| h4-hermonville | 28-08-2026 - 18:48 | 20°C / 73.5% |
| h1-hermonville | 28-08-2026 - 18:43 | 19.7°C / 77% |
| h2-hermonville | 28-08-2026 - 18:43 | 20.1°C / 74.5% |
| h3-hermonville | 28-08-2026 - 18:39 | 19.2°C / 77.5% |
| h4-hermonville | 28-08-2026 - 18:38 | 20°C / 73% |
| h1-hermonville | 28-08-2026 - 18:33 | 19.7°C / 76.5% |
| h2-hermonville | 28-08-2026 - 18:33 | 20.5°C / 73.5% |
| h3-hermonville | 28-08-2026 - 18:29 | 19.4°C / 76.5% |
| h4-hermonville | 28-08-2026 - 18:28 | 20°C / 72.5% |
| h1-hermonville | 28-08-2026 - 18:23 | 19.9°C / 75.5% |
| h3-hermonville | 28-08-2026 - 18:19 | 19.4°C / 78% |
| h4-hermonville | 28-08-2026 - 18:18 | 20.1°C / 74.5% |
| h1-hermonville | 28-08-2026 - 18:13 | 19.7°C / 78% |
| h3-hermonville | 28-08-2026 - 18:09 | 18.8°C / 79% |
| h1-hermonville | 28-08-2026 - 18:03 | 19.2°C / 79% |
| h3-hermonville | 28-08-2026 - 17:59 | 18.3°C / 79.5% |
| h4-hermonville | 28-08-2026 - 17:58 | 19.4°C / 74% |
| h1-hermonville | 28-08-2026 - 17:53 | 18.9°C / 78.5% |
| h2-hermonville | 28-08-2026 - 17:53 | 20.5°C / 73.5% |
| h3-hermonville | 28-08-2026 - 17:49 | 17.9°C / 81.5% |
| h4-hermonville | 28-08-2026 - 17:48 | 19.2°C / 75% |
| h2-hermonville | 28-08-2026 - 17:43 | 19.7°C / 76.5% |
| h1-hermonville | 28-08-2026 - 17:43 | 18.5°C / 79.5% |
| h3-hermonville | 28-08-2026 - 17:39 | 17.4°C / 81.5% |
| h4-hermonville | 28-08-2026 - 17:38 | 19°C / 74% |
| h2-hermonville | 28-08-2026 - 17:33 | 18.3°C / 79% |
| h1-hermonville | 28-08-2026 - 17:33 | 18.1°C / 80% |
| h3-hermonville | 28-08-2026 - 17:29 | 16.7°C / 83% |
| h4-hermonville | 28-08-2026 - 17:28 | 18.7°C / 73% |
| h2-hermonville | 28-08-2026 - 17:23 | 17°C / 84% |
| h1-hermonville | 28-08-2026 - 17:23 | 17.9°C / 78% |
| h3-hermonville | 28-08-2026 - 17:19 | 16.7°C / 81.5% |
| h4-hermonville | 28-08-2026 - 17:18 | 19°C / 72% |
| h1-hermonville | 28-08-2026 - 17:13 | 18.4°C / 76% |
| h2-hermonville | 28-08-2026 - 17:13 | 16.9°C / 83% |
| h3-hermonville | 28-08-2026 - 17:09 | 17.2°C / 78.5% |
| h4-hermonville | 28-08-2026 - 17:08 | 19.4°C / 69% |
| h2-hermonville | 28-08-2026 - 17:03 | 17.8°C / 78.5% |
| h3-hermonville | 28-08-2026 - 16:59 | 18.3°C / 76% |
| h4-hermonville | 28-08-2026 - 16:58 | 20°C / 68.5% |
| h2-hermonville | 28-08-2026 - 16:53 | 19.1°C / 76.5% |
| h1-hermonville | 28-08-2026 - 16:53 | 19.9°C / 74% |
| h3-hermonville | 28-08-2026 - 16:49 | 19.3°C / 76% |
| h4-hermonville | 28-08-2026 - 16:48 | 20.6°C / 69.5% |
| h1-hermonville | 28-08-2026 - 16:43 | 20.5°C / 70.5% |
| h2-hermonville | 28-08-2026 - 16:43 | 20.2°C / 73% |
| h3-hermonville | 28-08-2026 - 16:39 | 20.3°C / 70.5% |
| h4-hermonville | 28-08-2026 - 16:38 | 21.1°C / 66.5% |
| h1-hermonville | 28-08-2026 - 16:33 | 21.1°C / 69% |
| h2-hermonville | 28-08-2026 - 16:33 | 21.2°C / 68% |
| h3-hermonville | 28-08-2026 - 16:29 | 20.7°C / 67% |
| h4-hermonville | 28-08-2026 - 16:28 | 21.3°C / 63.5% |
| h2-hermonville | 28-08-2026 - 16:23 | 21.8°C / 63.5% |
| h1-hermonville | 28-08-2026 - 16:23 | 21.4°C / 65.5% |
| h3-hermonville | 28-08-2026 - 16:19 | 20.7°C / 65.5% |
| h4-hermonville | 28-08-2026 - 16:18 | 21.5°C / 63% |
| h1-hermonville | 28-08-2026 - 16:13 | 21.4°C / 65% |
| h2-hermonville | 28-08-2026 - 16:13 | 22.1°C / 62.5% |
| h3-hermonville | 28-08-2026 - 16:09 | 21°C / 65% |
| h4-hermonville | 28-08-2026 - 16:08 | 21.4°C / 63.5% |
| h1-hermonville | 28-08-2026 - 16:03 | 21.3°C / 65.5% |
| h2-hermonville | 28-08-2026 - 16:03 | 21.9°C / 63.5% |
| h3-hermonville | 28-08-2026 - 15:59 | 20.6°C / 67% |
| h4-hermonville | 28-08-2026 - 15:58 | 21.2°C / 64% |
| h1-hermonville | 28-08-2026 - 15:53 | 21.2°C / 65.5% |
| h2-hermonville | 28-08-2026 - 15:53 | 21.6°C / 64% |
| h4-hermonville | 28-08-2026 - 15:48 | 21.3°C / 64.5% |
| h1-hermonville | 28-08-2026 - 15:43 | 21.1°C / 66.5% |
| h3-hermonville | 28-08-2026 - 15:39 | 20.6°C / 68% |
| h4-hermonville | 28-08-2026 - 15:38 | 21.2°C / 64.5% |
| h1-hermonville | 28-08-2026 - 15:33 | 20.9°C / 67% |
| h3-hermonville | 28-08-2026 - 15:29 | 20.6°C / 68% |
| h4-hermonville | 28-08-2026 - 15:28 | 21.2°C / 65.5% |
| h1-hermonville | 28-08-2026 - 15:23 | 21°C / 67.5% |
| h2-hermonville | 28-08-2026 - 15:23 | 21°C / 67.5% |
| h3-hermonville | 28-08-2026 - 15:19 | 20.6°C / 67% |
| h4-hermonville | 28-08-2026 - 15:18 | 21.1°C / 63.5% |
| h1-hermonville | 28-08-2026 - 15:13 | 20.7°C / 65.5% |
| h2-hermonville | 28-08-2026 - 15:13 | 20.4°C / 66.5% |
| h3-hermonville | 28-08-2026 - 15:09 | 20°C / 66.5% |
| h4-hermonville | 28-08-2026 - 15:08 | 20.8°C / 63% |
| h1-hermonville | 28-08-2026 - 15:03 | 20.4°C / 66% |
| h2-hermonville | 28-08-2026 - 15:03 | 20.2°C / 66.5% |
| h3-hermonville | 28-08-2026 - 14:59 | 19.8°C / 67% |
| h4-hermonville | 28-08-2026 - 14:58 | 21°C / 63.5% |
| h1-hermonville | 28-08-2026 - 14:53 | 20.9°C / 65% |
| h2-hermonville | 28-08-2026 - 14:53 | 20.8°C / 65% |
| h3-hermonville | 28-08-2026 - 14:49 | 20.7°C / 60.5% |
| h4-hermonville | 28-08-2026 - 14:48 | 21.2°C / 58.5% |
| h1-hermonville | 28-08-2026 - 14:43 | 21.2°C / 60% |
| h3-hermonville | 28-08-2026 - 14:39 | 21.1°C / 59.5% |
| h4-hermonville | 28-08-2026 - 14:38 | 21.8°C / 58% |
| h1-hermonville | 28-08-2026 - 14:33 | 21.5°C / 60% |
| h2-hermonville | 28-08-2026 - 14:33 | 21.5°C / 58.5% |
| h4-hermonville | 28-08-2026 - 14:28 | 21.9°C / 57.5% |
| h1-hermonville | 28-08-2026 - 14:23 | 21.7°C / 59.5% |
| h2-hermonville | 28-08-2026 - 14:23 | 22°C / 58% |
| h3-hermonville | 28-08-2026 - 14:19 | 22°C / 56.5% |
| h4-hermonville | 28-08-2026 - 14:18 | 22.2°C / 56% |
| h1-hermonville | 28-08-2026 - 14:13 | 22°C / 60.5% |
| h2-hermonville | 28-08-2026 - 14:13 | 21.9°C / 59% |
| h3-hermonville | 28-08-2026 - 14:09 | 21.9°C / 61% |
| h4-hermonville | 28-08-2026 - 14:08 | 22.1°C / 59% |
| h1-hermonville | 28-08-2026 - 14:03 | 22°C / 60.5% |
| h2-hermonville | 28-08-2026 - 14:03 | 21.9°C / 60% |
| h3-hermonville | 28-08-2026 - 13:59 | 21.7°C / 59% |
| h1-hermonville | 28-08-2026 - 13:53 | 22°C / 60% |
| h3-hermonville | 28-08-2026 - 13:49 | 22.2°C / 58% |
| h4-hermonville | 28-08-2026 - 13:48 | 22.2°C / 59.5% |
| h1-hermonville | 28-08-2026 - 13:43 | 21.9°C / 62.5% |
| h2-hermonville | 28-08-2026 - 13:43 | 22.4°C / 60% |
| h3-hermonville | 28-08-2026 - 13:39 | 22.3°C / 58% |
| h4-hermonville | 28-08-2026 - 13:38 | 22°C / 60.5% |
| h1-hermonville | 28-08-2026 - 13:33 | 21.5°C / 63% |
| h2-hermonville | 28-08-2026 - 13:33 | 22°C / 61.5% |
| h3-hermonville | 28-08-2026 - 13:29 | 21.8°C / 61.5% |
| h4-hermonville | 28-08-2026 - 13:28 | 21.6°C / 62% |
| h1-hermonville | 28-08-2026 - 13:23 | 21.3°C / 64.5% |
| h2-hermonville | 28-08-2026 - 13:23 | 21.7°C / 63.5% |
| h3-hermonville | 28-08-2026 - 13:19 | 21.2°C / 61.5% |
| h1-hermonville | 28-08-2026 - 13:13 | 21.2°C / 66% |
| h2-hermonville | 28-08-2026 - 13:13 | 21.3°C / 66% |
| h3-hermonville | 28-08-2026 - 13:09 | 20.9°C / 64% |
| h2-hermonville | 28-08-2026 - 13:03 | 21.3°C / 65% |
| h3-hermonville | 28-08-2026 - 12:59 | 21°C / 66% |
| h1-hermonville | 28-08-2026 - 12:53 | 20.7°C / 68.5% |
| h2-hermonville | 28-08-2026 - 12:53 | 21°C / 67% |
| h3-hermonville | 28-08-2026 - 12:49 | 20.8°C / 66.5% |
| h1-hermonville | 28-08-2026 - 12:43 | 20.3°C / 69% |
| h2-hermonville | 28-08-2026 - 12:43 | 20.5°C / 68.5% |
| h3-hermonville | 28-08-2026 - 12:39 | 20.4°C / 68% |
| h4-hermonville | 28-08-2026 - 12:38 | 21°C / 64% |
| h1-hermonville | 28-08-2026 - 12:33 | 20.1°C / 71% |
| h2-hermonville | 28-08-2026 - 12:33 | 20.3°C / 70.5% |
| h3-hermonville | 28-08-2026 - 12:29 | 20.1°C / 67.5% |
| h4-hermonville | 28-08-2026 - 12:28 | 21°C / 64.5% |
| h2-hermonville | 28-08-2026 - 12:23 | 19.9°C / 70% |
| h3-hermonville | 28-08-2026 - 12:19 | 20°C / 70% |
| h2-hermonville | 28-08-2026 - 12:13 | 19.7°C / 71.5% |
| h1-hermonville | 28-08-2026 - 12:13 | 19.7°C / 71.5% |
| h3-hermonville | 28-08-2026 - 12:09 | 19.7°C / 71.5% |
| h4-hermonville | 28-08-2026 - 12:08 | 20.8°C / 66% |
| h1-hermonville | 28-08-2026 - 12:03 | 19.3°C / 72.5% |
| h2-hermonville | 28-08-2026 - 12:03 | 19.3°C / 73% |
| h3-hermonville | 28-08-2026 - 11:59 | 19.4°C / 71.5% |
| h4-hermonville | 28-08-2026 - 11:58 | 20.9°C / 64.5% |
| h2-hermonville | 28-08-2026 - 11:53 | 19°C / 72.5% |
| h1-hermonville | 28-08-2026 - 11:53 | 19.1°C / 72.5% |
| h4-hermonville | 28-08-2026 - 11:48 | 21.1°C / 64.5% |
| h1-hermonville | 28-08-2026 - 11:43 | 19°C / 76% |
| h2-hermonville | 28-08-2026 - 11:43 | 18.6°C / 77% |
| h3-hermonville | 28-08-2026 - 11:39 | 18.7°C / 76.5% |
| h4-hermonville | 28-08-2026 - 11:38 | 21.8°C / 63.5% |
| h1-hermonville | 28-08-2026 - 11:33 | 18.6°C / 76.5% |
| h2-hermonville | 28-08-2026 - 11:33 | 18.3°C / 77.5% |
| h3-hermonville | 28-08-2026 - 11:29 | 18.4°C / 77.5% |
| h4-hermonville | 28-08-2026 - 11:28 | 23.7°C / 58% |
| h1-hermonville | 28-08-2026 - 11:23 | 18.4°C / 79.5% |
| h2-hermonville | 28-08-2026 - 11:23 | 17.8°C / 81% |
| h3-hermonville | 28-08-2026 - 11:19 | 17.9°C / 81% |
| h4-hermonville | 28-08-2026 - 11:18 | 24°C / 59% |
| h1-hermonville | 28-08-2026 - 11:13 | 18°C / 81% |
| h2-hermonville | 28-08-2026 - 11:13 | 17.1°C / 86.5% |
| h4-hermonville | 28-08-2026 - 11:08 | 21.5°C / 66.5% |
| h1-hermonville | 28-08-2026 - 11:03 | 17.1°C / 81% |
| h4-hermonville | 28-08-2026 - 10:58 | 18.2°C / 75% |
| h1-hermonville | 28-08-2026 - 10:53 | 17.2°C / 81.5% |
| h1-hermonville | 28-08-2026 - 10:43 | 17.2°C / 82.5% |
| h2-hermonville | 28-08-2026 - 10:43 | 16.3°C / 90% |
| h3-hermonville | 28-08-2026 - 10:39 | 16.4°C / 87% |
| h4-hermonville | 28-08-2026 - 10:38 | 18.1°C / 77.5% |
| h1-hermonville | 28-08-2026 - 10:33 | 17.3°C / 82% |
| h2-hermonville | 28-08-2026 - 10:33 | 15.8°C / 91% |
| h3-hermonville | 28-08-2026 - 10:29 | 16°C / 92.5% |
| h1-hermonville | 28-08-2026 - 10:23 | 17.8°C / 81% |
| h2-hermonville | 28-08-2026 - 10:23 | 16.6°C / 89% |
| h3-hermonville | 28-08-2026 - 10:19 | 17.6°C / 89% |
| h4-hermonville | 28-08-2026 - 10:18 | 19.3°C / 82.5% |
| h1-hermonville | 28-08-2026 - 10:13 | 18.5°C / 89% |
| h2-hermonville | 28-08-2026 - 10:13 | 18.2°C / 91% |
| h3-hermonville | 28-08-2026 - 10:09 | 18°C / 92% |
| h1-hermonville | 28-08-2026 - 10:03 | 18.7°C / 89.5% |
| h2-hermonville | 28-08-2026 - 10:03 | 18.3°C / 91.5% |
| h3-hermonville | 28-08-2026 - 09:59 | 18°C / 92% |
| h1-hermonville | 28-08-2026 - 09:53 | 19°C / 89% |
| h2-hermonville | 28-08-2026 - 09:53 | 18.4°C / 91.5% |
| h3-hermonville | 28-08-2026 - 09:49 | 18.1°C / 93% |
| h1-hermonville | 28-08-2026 - 09:43 | 18.7°C / 89% |
| h2-hermonville | 28-08-2026 - 09:43 | 18.4°C / 91.5% |
| h3-hermonville | 28-08-2026 - 09:39 | 17.9°C / 92.5% |
| h4-hermonville | 28-08-2026 - 09:38 | 19.2°C / 85% |
| h1-hermonville | 28-08-2026 - 09:33 | 18.7°C / 88.5% |
| h2-hermonville | 28-08-2026 - 09:33 | 18.2°C / 92% |
| h3-hermonville | 28-08-2026 - 09:29 | 17.8°C / 93% |
| h1-hermonville | 28-08-2026 - 09:23 | 18.7°C / 89% |
| h2-hermonville | 28-08-2026 - 09:23 | 18.1°C / 92% |
| h3-hermonville | 28-08-2026 - 09:19 | 17.7°C / 93% |
| h1-hermonville | 28-08-2026 - 09:13 | 18.6°C / 89% |
| h2-hermonville | 28-08-2026 - 09:13 | 18.1°C / 92% |
| h3-hermonville | 28-08-2026 - 09:09 | 17.8°C / 92% |
| h1-hermonville | 28-08-2026 - 09:03 | 18.7°C / 88.5% |
| h3-hermonville | 28-08-2026 - 08:59 | 18°C / 91% |
| h4-hermonville | 28-08-2026 - 08:58 | 19.6°C / 82.5% |
| h1-hermonville | 28-08-2026 - 08:53 | 18.6°C / 89.5% |
| h2-hermonville | 28-08-2026 - 08:53 | 18.5°C / 90.5% |
| h3-hermonville | 28-08-2026 - 08:49 | 18.5°C / 91% |
| h4-hermonville | 28-08-2026 - 08:48 | 19.6°C / 83% |
| h1-hermonville | 28-08-2026 - 08:43 | 18.3°C / 90% |
| h2-hermonville | 28-08-2026 - 08:43 | 18.4°C / 91% |
| h3-hermonville | 28-08-2026 - 08:39 | 18°C / 92% |
| h4-hermonville | 28-08-2026 - 08:38 | 19.3°C / 84% |
| h1-hermonville | 28-08-2026 - 08:33 | 18.9°C / 88% |
| h2-hermonville | 28-08-2026 - 08:33 | 18.4°C / 90% |
| h3-hermonville | 28-08-2026 - 08:29 | 17.8°C / 92% |
| h1-hermonville | 28-08-2026 - 08:23 | 18.9°C / 87.5% |
| h2-hermonville | 28-08-2026 - 08:23 | 18.2°C / 90.5% |
| h3-hermonville | 28-08-2026 - 08:19 | 18°C / 91% |
| h1-hermonville | 28-08-2026 - 08:13 | 19.1°C / 87% |
| h2-hermonville | 28-08-2026 - 08:13 | 18.3°C / 90% |
| h3-hermonville | 28-08-2026 - 08:09 | 18°C / 89.5% |
| h1-hermonville | 28-08-2026 - 08:03 | 19.1°C / 86.5% |
| h2-hermonville | 28-08-2026 - 08:03 | 18.5°C / 90% |
| h3-hermonville | 28-08-2026 - 07:59 | 18.4°C / 89% |
| h4-hermonville | 28-08-2026 - 07:58 | 19.6°C / 82% |
| h1-hermonville | 28-08-2026 - 07:53 | 19°C / 87% |
| h2-hermonville | 28-08-2026 - 07:53 | 18.3°C / 90.5% |
| h3-hermonville | 28-08-2026 - 07:49 | 18.1°C / 90% |
| h4-hermonville | 28-08-2026 - 07:48 | 19.6°C / 82.5% |
| h1-hermonville | 28-08-2026 - 07:43 | 18.9°C / 87.5% |
| h2-hermonville | 28-08-2026 - 07:43 | 18.3°C / 90% |
| h3-hermonville | 28-08-2026 - 07:39 | 18.2°C / 89.5% |
| h1-hermonville | 28-08-2026 - 07:33 | 18.9°C / 87.5% |
| h2-hermonville | 28-08-2026 - 07:33 | 18.3°C / 89.5% |
| h3-hermonville | 28-08-2026 - 07:29 | 18.6°C / 88% |
| h1-hermonville | 28-08-2026 - 07:23 | 18.9°C / 88.5% |
| h2-hermonville | 28-08-2026 - 07:23 | 18.8°C / 88.5% |
| h3-hermonville | 28-08-2026 - 07:19 | 18.3°C / 90% |
| h1-hermonville | 28-08-2026 - 07:13 | 18.7°C / 89% |
| h2-hermonville | 28-08-2026 - 07:13 | 19.2°C / 88% |
| h3-hermonville | 28-08-2026 - 07:09 | 18.5°C / 89% |
| h4-hermonville | 28-08-2026 - 07:08 | 19.1°C / 85% |
| h1-hermonville | 28-08-2026 - 07:03 | 18.5°C / 90% |
| h2-hermonville | 28-08-2026 - 07:03 | 18.6°C / 90% |
| h3-hermonville | 28-08-2026 - 06:59 | 18.7°C / 88% |
| h4-hermonville | 28-08-2026 - 06:58 | 19.7°C / 83% |
| h1-hermonville | 28-08-2026 - 06:53 | 18.5°C / 89.5% |
| h3-hermonville | 28-08-2026 - 06:49 | 18.6°C / 90.5% |
| h1-hermonville | 28-08-2026 - 06:43 | 18.8°C / 89.5% |
| h2-hermonville | 28-08-2026 - 06:43 | 18.7°C / 90% |
| h3-hermonville | 28-08-2026 - 06:39 | 18.6°C / 89.5% |
| h1-hermonville | 28-08-2026 - 06:33 | 18.6°C / 90% |
| h2-hermonville | 28-08-2026 - 06:33 | 18.9°C / 90% |
| h4-hermonville | 28-08-2026 - 06:28 | 19.4°C / 84.5% |
| h1-hermonville | 28-08-2026 - 06:23 | 18.6°C / 90% |
| h2-hermonville | 28-08-2026 - 06:23 | 18.7°C / 89.5% |
| h3-hermonville | 28-08-2026 - 06:19 | 19.4°C / 86.5% |
| h4-hermonville | 28-08-2026 - 06:18 | 19.5°C / 83.5% |
| h1-hermonville | 28-08-2026 - 06:13 | 18.5°C / 89.5% |
| h2-hermonville | 28-08-2026 - 06:13 | 18.7°C / 90% |
| h3-hermonville | 28-08-2026 - 06:09 | 19.3°C / 87% |
| h4-hermonville | 28-08-2026 - 06:08 | 19.9°C / 82% |
| h1-hermonville | 28-08-2026 - 06:03 | 19.1°C / 87.5% |
| h2-hermonville | 28-08-2026 - 06:03 | 18.8°C / 90% |
| h3-hermonville | 28-08-2026 - 05:59 | 19.2°C / 86% |
| h4-hermonville | 28-08-2026 - 05:58 | 20.2°C / 80.5% |
| h1-hermonville | 28-08-2026 - 05:53 | 19.4°C / 86.5% |
| h2-hermonville | 28-08-2026 - 05:53 | 18.6°C / 90.5% |
| h3-hermonville | 28-08-2026 - 05:49 | 19.3°C / 86.5% |
| h4-hermonville | 28-08-2026 - 05:48 | 20.3°C / 80.5% |
| h1-hermonville | 28-08-2026 - 05:43 | 19.4°C / 87% |
| h2-hermonville | 28-08-2026 - 05:43 | 18.7°C / 90% |
| h3-hermonville | 28-08-2026 - 05:39 | 19.6°C / 86% |
| h4-hermonville | 28-08-2026 - 05:38 | 20.2°C / 81% |
| h1-hermonville | 28-08-2026 - 05:33 | 19.3°C / 87.5% |
| h2-hermonville | 28-08-2026 - 05:33 | 18.8°C / 89.5% |
| h3-hermonville | 28-08-2026 - 05:29 | 19.2°C / 87.5% |
| h4-hermonville | 28-08-2026 - 05:28 | 20.1°C / 81% |
| h1-hermonville | 28-08-2026 - 05:23 | 19.2°C / 87.5% |
| h2-hermonville | 28-08-2026 - 05:23 | 18.8°C / 90% |
| h4-hermonville | 28-08-2026 - 05:18 | 20.3°C / 80.5% |
| h1-hermonville | 28-08-2026 - 05:13 | 19.4°C / 87% |
| h2-hermonville | 28-08-2026 - 05:13 | 18.7°C / 90% |
| h3-hermonville | 28-08-2026 - 05:09 | 19°C / 87.5% |
| h4-hermonville | 28-08-2026 - 05:08 | 20.4°C / 80.5% |
| h1-hermonville | 28-08-2026 - 05:03 | 19.3°C / 87% |
| h2-hermonville | 28-08-2026 - 05:03 | 18.7°C / 90% |
| h3-hermonville | 28-08-2026 - 04:59 | 19.2°C / 88% |
| h4-hermonville | 28-08-2026 - 04:58 | 20.2°C / 81% |
| h1-hermonville | 28-08-2026 - 04:53 | 19.4°C / 86.5% |
| h2-hermonville | 28-08-2026 - 04:53 | 18.6°C / 90% |
| h3-hermonville | 28-08-2026 - 04:49 | 18.5°C / 90% |
| h4-hermonville | 28-08-2026 - 04:48 | 20.3°C / 80.5% |
| h1-hermonville | 28-08-2026 - 04:43 | 19.5°C / 86.5% |
| h2-hermonville | 28-08-2026 - 04:43 | 18.7°C / 89.5% |
| h3-hermonville | 28-08-2026 - 04:39 | 18.7°C / 89% |
| h4-hermonville | 28-08-2026 - 04:38 | 20.4°C / 80% |
| h1-hermonville | 28-08-2026 - 04:33 | 19.7°C / 86.5% |
| h2-hermonville | 28-08-2026 - 04:33 | 19°C / 89% |
| h3-hermonville | 28-08-2026 - 04:29 | 19.1°C / 87.5% |
| h4-hermonville | 28-08-2026 - 04:28 | 20.5°C / 80% |
| h1-hermonville | 28-08-2026 - 04:23 | 19.8°C / 86% |
| h2-hermonville | 28-08-2026 - 04:23 | 19.2°C / 88.5% |
| h3-hermonville | 28-08-2026 - 04:19 | 19.4°C / 88% |
| h4-hermonville | 28-08-2026 - 04:18 | 20.6°C / 80.5% |
| h1-hermonville | 28-08-2026 - 04:13 | 19.8°C / 86.5% |
| h2-hermonville | 28-08-2026 - 04:13 | 19.4°C / 89% |
| h3-hermonville | 28-08-2026 - 04:09 | 19.4°C / 88.5% |
| h4-hermonville | 28-08-2026 - 04:08 | 20.5°C / 81% |
| h1-hermonville | 28-08-2026 - 04:03 | 19.7°C / 87.5% |
| h2-hermonville | 28-08-2026 - 04:03 | 19.6°C / 89% |
| h3-hermonville | 28-08-2026 - 03:59 | 19.2°C / 89% |
| h4-hermonville | 28-08-2026 - 03:58 | 20.4°C / 82% |
| h1-hermonville | 28-08-2026 - 03:53 | 19.8°C / 88% |
| h2-hermonville | 28-08-2026 - 03:53 | 19.4°C / 90% |
| h3-hermonville | 28-08-2026 - 03:49 | 19.2°C / 90% |
| h1-hermonville | 28-08-2026 - 03:43 | 19.6°C / 89% |
| h2-hermonville | 28-08-2026 - 03:43 | 19.6°C / 89% |
| h3-hermonville | 28-08-2026 - 03:39 | 19.2°C / 89.5% |
| h1-hermonville | 28-08-2026 - 03:33 | 19.6°C / 89% |
| h2-hermonville | 28-08-2026 - 03:33 | 19.5°C / 90% |
| h4-hermonville | 28-08-2026 - 03:28 | 20.6°C / 82% |
| h1-hermonville | 28-08-2026 - 03:23 | 19.4°C / 90% |
| h2-hermonville | 28-08-2026 - 03:23 | 19.5°C / 89.5% |
| h3-hermonville | 28-08-2026 - 03:19 | 19.8°C / 86.5% |
| h4-hermonville | 28-08-2026 - 03:18 | 20.4°C / 82.5% |
| h1-hermonville | 28-08-2026 - 03:13 | 18.9°C / 93% |
| h2-hermonville | 28-08-2026 - 03:13 | 19.6°C / 89.5% |
| h3-hermonville | 28-08-2026 - 03:09 | 20.1°C / 87.5% |
| h1-hermonville | 28-08-2026 - 03:03 | 19.1°C / 92% |
| h2-hermonville | 28-08-2026 - 03:03 | 19.6°C / 90% |
| h3-hermonville | 28-08-2026 - 02:59 | 19.8°C / 88% |
| h4-hermonville | 28-08-2026 - 02:58 | 20.5°C / 83% |
| h1-hermonville | 28-08-2026 - 02:53 | 18.9°C / 94% |
| h2-hermonville | 28-08-2026 - 02:53 | 19.8°C / 90% |
| h3-hermonville | 28-08-2026 - 02:49 | 19.8°C / 88.5% |
| h4-hermonville | 28-08-2026 - 02:48 | 20.5°C / 83% |
| h1-hermonville | 28-08-2026 - 02:43 | 18.7°C / 94% |
| h2-hermonville | 28-08-2026 - 02:43 | 19.8°C / 89.5% |
| h3-hermonville | 28-08-2026 - 02:39 | 19.8°C / 88.5% |
| h1-hermonville | 28-08-2026 - 02:33 | 19°C / 93% |
| h2-hermonville | 28-08-2026 - 02:33 | 20°C / 88.5% |
| h3-hermonville | 28-08-2026 - 02:29 | 20°C / 88.5% |
| h4-hermonville | 28-08-2026 - 02:28 | 19.9°C / 86% |
| h1-hermonville | 28-08-2026 - 02:23 | 19°C / 91.5% |
| h2-hermonville | 28-08-2026 - 02:23 | 20.2°C / 89% |
| h3-hermonville | 28-08-2026 - 02:19 | 19.5°C / 91.5% |
| h4-hermonville | 28-08-2026 - 02:18 | 20.5°C / 83.5% |
| h1-hermonville | 28-08-2026 - 02:13 | 19.8°C / 88.5% |
| h2-hermonville | 28-08-2026 - 02:13 | 19.7°C / 90.5% |
| h3-hermonville | 28-08-2026 - 02:09 | 19.1°C / 92% |
| h4-hermonville | 28-08-2026 - 02:08 | 20.8°C / 81.5% |
| h1-hermonville | 28-08-2026 - 02:03 | 19.9°C / 88% |
| h2-hermonville | 28-08-2026 - 02:03 | 19.4°C / 91% |
| h3-hermonville | 28-08-2026 - 01:59 | 19°C / 92.5% |
| h4-hermonville | 28-08-2026 - 01:58 | 20.9°C / 81.5% |
| h1-hermonville | 28-08-2026 - 01:53 | 19.9°C / 88% |
| h3-hermonville | 28-08-2026 - 01:49 | 19.1°C / 92% |
| h4-hermonville | 28-08-2026 - 01:48 | 20.9°C / 81.5% |
| h1-hermonville | 28-08-2026 - 01:43 | 20°C / 88.5% |
| h2-hermonville | 28-08-2026 - 01:43 | 19.5°C / 91% |
| h3-hermonville | 28-08-2026 - 01:39 | 19°C / 92% |
| h1-hermonville | 28-08-2026 - 01:33 | 19.9°C / 88.5% |
| h2-hermonville | 28-08-2026 - 01:33 | 19.5°C / 91% |
| h3-hermonville | 28-08-2026 - 01:29 | 19.1°C / 91.5% |
| h1-hermonville | 28-08-2026 - 01:23 | 19.9°C / 88% |
| h2-hermonville | 28-08-2026 - 01:23 | 19.4°C / 90.5% |
| h3-hermonville | 28-08-2026 - 01:19 | 19.3°C / 89.5% |
| h4-hermonville | 28-08-2026 - 01:18 | 20.8°C / 81.5% |
| h1-hermonville | 28-08-2026 - 01:13 | 19.9°C / 88% |
| h2-hermonville | 28-08-2026 - 01:13 | 19.5°C / 90% |
| h3-hermonville | 28-08-2026 - 01:09 | 19.8°C / 89% |
| h4-hermonville | 28-08-2026 - 01:08 | 20.6°C / 82.5% |
| h1-hermonville | 28-08-2026 - 01:03 | 19.8°C / 88.5% |
| h2-hermonville | 28-08-2026 - 01:03 | 19.7°C / 90% |
| h1-hermonville | 28-08-2026 - 00:13 | 20.1°C / 88.5% |
| h2-hermonville | 28-08-2026 - 00:13 | 20.1°C / 90% |
| h3-hermonville | 28-08-2026 - 00:09 | 19.4°C / 91.5% |
| h4-hermonville | 28-08-2026 - 00:08 | 20.9°C / 82.5% |
| h1-hermonville | 28-08-2026 - 00:03 | 20.2°C / 88.5% |
| h2-hermonville | 28-08-2026 - 00:03 | 19.9°C / 90.5% |